SCP
0 0 0 0 0 0 0 0 0 0 0 0 0 0 0 0 0 0 0 0 0 0 0 0 0 0 0 0 0 0 0 0 0 0 0 0 0 0 0 0 0 0 0 0
0 0 0 0 0 0 0 0 0 0 0 0 0 0 0 0 0 0 0 0 0 0 0 0 0 0 0 0 0 0 0 0 0 0 0 0 0 0 0 0 0 0 0 0
0 0 0 0 0 0 0 0 0 0 0 0 0 0 0 0 0 0 0 0 0 0 0 0 0 0 0 0 0 0 0 0 0 0 0 0 0 0 0 0 0 0 0 0
0 0 0 0 0 0 0 0 0 0 0 0 0 0 0 0 0 0 0 0 0 0 0 0 0 0 0 0 0 0 0 0 0 0 0 0 0 0 0 0 0 0 0 0
0 0 0 0 0 0 0 0 0 0 0 0 0 0 0 0 0 0 0 0 0 0 0 0 0 0 0 0 0 0 0 0 0 0 0 0 0 0 0 0 0 0 0 0
0 0 0 0 0 0 0 0 0 0 0 0 0 0 0 0 0 0 0 0 0 0 0 0 0 0 0 0 0 0 0 0 0 0 0 0 0 0 0 0 0 0 0 0
0 0 0 0 0 0 0 0 0 0 0 0 0 0 0 0 0 0 0 0 0 0 0 0 0 0 0 0 0 0 0 0 0 0 0 0 0 0 0 0 0 0 0 0
0 0 0 0 0 0 0 0 0 0 0 0 0 0 0 0 0 0 0 0 0 0 0 0 0 0 0 0 0 0 0 0 0 0 0 0 0 0 0 0 0 0 0 0
0 0 0 0 0 0 0 0 0 0 0 0 0 0 0 0 0 0 0 0 0 0 0 0 0 0 0 0 0 0 0 0 0 0 0 0 0 0 0 0 0 0 0 0
0 0 0 0 0 0 0 0 0 0 0 0 0 0 0 0 0 0 0 0 0 0 0 0 0 0 0 0 0 0 0 0 0 0 0 0 0 0 0 0 0 0 0 0
0 0 0 0 0 0 0 0 0 0 0 0 0 0 0 0 0 0 0 0 0 0 0 0 0 0 0 0 0 0 0 0 0 0 0 0 0 0 0 0 0 0 0 0
0 0 0 0 0 0 0 0 0 0 0 0 0 0 0 0 0 0 0 0 0 0 0 0 0 0 0 0 0 0 0 0 0 0 0 0 0 0 0 0 0 0 0 0
0 0 0 0 0 0 0 0 0 0 0 0 0 0 0 0 0 0 0 0 0 0 0 0 0 0 0 0 0 0 0 0 0 0 0 0 0 0 0 0 0 0 0 0
0 0 0 0 0 0 0 0 0 0 0 0 0 0 0 0 0 0 0 0 0 0 0 0 0 0 0 0 0 0 0 0 0 0 0 0 0 0 0 0 0 0 0 0
0 0 0 0 0 0 0 0 0 0 0 0 0 0 0 0 0 0 0 0 0 0 0 0 0 0 0 0 0 0 0 0 0 0 0 0 0 0 0 0 0 0 0 0
0 0 0 0 0 0 0 0 0 0 0 0 0 0 0 0 0 0 0 0 0 0 0 0 0 0 0 0 0 0 0 0 0 0 0 0 0 0 0 0 0 0 0 0
0 0 0 0 0 0 0 0 0 0 0 0 0 0 0 0 0 0 0 0 0 0 0 0 0 0 0 0 0 0 0 0 0 0 0 0 0 0 0 0 0 0 0 0
0 0 0 0 0 0 0 0 0 0 0 0 0 0 0 0 0 0 0 0 0 0 0 0 0 0 0 0 0 0 0 0 0 0 0 0 0 0 0 0 0 0 0 0
0 0 0 0 0 0 0 0 0 0 0 0 0 0 0 0 0 0 0 0 0 0 0 0 0 0 0 0 0 0 0 0 0 0 0 0 0 0 0 0 0 0 0 0
0 0 0 0 0 0 0 0 0 0 0 0 0 0 0 0 0 0 0 0 0 0 0 0 0 0 0 0 0 0 0 0 0 0 0 0 0 0 0 0 0 0 0 0
0 0 0 0 0 0 0 0 0 0 0 0 0 0 0 0 0 0 0 0 0 0 0 0 0 0 0 0 0 0 0 0 0 0 0 0 0 0 0 0 0 0 0 0
0 0 0 0 0 0 0 0 0 0 0 0 0 0 0 0 0 0 0 0 0 0 0 0 0 0 0 0 0 0 0 0 0 0 0 0 0 0 0 0 0 0 0 0
0 0 0 0 0 0 0 0 0 0 0 0 0 0 0 0 0 0 0 0 0 0 0 0 0 0 0 0 0 0 0 0 0 0 0 0 0 0 0 0 0 0 0 0
0 0 0 0 0 0 0 0 0 0 0 0 0 0 0 0 0 0 0 0 0 0 0 0 0 0 0 0 0 0 0 0 0 0 0 0 0 0 0 0 0 0 0 0
0 0 0 0 0 0 0 0 0 0 0 0 0 0 0 0 0 0 0 0 0 0 0 0 0 0 0 0 0 0 0 0 0 0 0 0 0 0 0 0 0 0 0 0
0 0 0 0 0 0 0 0 0 0 0 0 0 0 0 0 0 0 0 0 0 0 0 0 0 0 0 0 0 0 0 0 0 0 0 0 0 0 0 0 0 0 0 0
0 0 0 0 0 0 0 0 0 0 0 0 0 0 0 0 0 0 0 0 0 0 0 0 0 0 0 0 0 0 0 0 0 0 0 0 0 0 0 0 0 0 0 0
Wind_Speed
9 8 4 3 6 8 12 13 12 13 18 24 7 5 5 5 5 5 5 5 6 6 7 6 6 6 7 7 7 7 8 9 11 10 8 8 8 8 7 8 8 8 8 8
8 10 8 9 11 12 12 12 15 16 23 20 11 8 8 8 7 7 7 7 7 8 8 8 7 7 6 6 6 6 8 9 9 7 7 7 7 7 7 7 7 7 8 8
6 4 4 12 16 17 14 14 12 18 22 14 13 11 9 8 9 10 10 10 10 9 9 8 7 6 6 5 4 5 7 7 6 6 6 6 6 6 7 7 6 7 7 7
2 4 11 10 6 14 18 19 17 15 16 14 13 12 11 9 9 11 10 10 10 8 8 6 4 3 3 2 2 3 5 5 5 5 5 5 5 6 6 5 6 6 6 6
4 6 7 8 7 6 8 12 9 11 11 11 11 10 10 6 7 8 8 7 7 6 6 6 5 4 3 3 2 3 4 4 4 4 5 4 5 5 4 4 4 4 4 6
6 6 9 8 3 3 4 8 2 2 5 8 8 6 7 10 11 11 10 7 7 6 6 5 5 5 4 4 3 3 4 3 3 3 4 4 4 3 3 3 3 4 3 4
13 10 9 9 4 2 6 5 3 4 4 6 5 6 10 13 10 9 8 7 5 6 5 4 5 5 4 3 3 3 2 1 0 1 2 2 2 2 3 3 4 3 3 2
10 10 11 3 1 2 1 1 2 3 4 6 8 10 10 11 11 9 8 6 5 5 5 4 4 3 3 2 2 2 2 3 3 3 3 3 4 4 4 5 4 3 3 1
7 7 3 1 2 1 2 1 3 4 5 6 8 10 11 11 11 9 7 5 4 4 5 4 4 3 2 2 2 2 4 4 4 5 4 4 4 4 4 4 3 3 2 2
4 5 3 3 2 1 1 1 4 6 7 6 8 10 12 11 10 9 8 5 3 4 4 3 3 4 3 3 1 3 4 4 4 5 5 4 4 3 3 3 3 2 2 2
5 5 6 5 4 3 4 5 7 8 8 8 9 11 11 11 10 8 7 4 3 3 3 2 2 3 4 4 1 3 4 4 4 5 5 4 4 4 4 3 3 3 2 2
7 5 5 8 7 7 8 9 10 10 11 9 8 10 11 10 8 6 5 3 2 2 1 1 1 2 4 4 1 3 4 4 4 4 4 4 4 5 10 8 9 8 6 4
10 10 9 11 10 9 9 10 10 10 11 12 10 8 8 8 6 4 3 2 2 1 0 1 1 2 5 5 2 3 4 4 3 4 4 4 4 4 5 7 12 12 11 9
7 7 9 9 9 9 8 9 8 9 9 9 8 7 6 5 4 3 2 1 1 1 1 1 1 3 5 5 2 4 5 5 4 4 4 4 4 4 3 4 4 4 8 12
6 6 9 10 9 8 6 7 8 10 9 9 6 5 5 5 4 2 0 1 2 2 2 2 2 3 6 4 4 5 5 4 4 5 4 4 4 4 4 5 5 4 4 6
10 8 6 7 8 8 8 8 9 11 10 9 7 5 3 2 1 1 1 1 2 2 2 2 3 4 5 3 4 5 5 7 6 5 5 5 5 5 5 5 5 5 5 4
7 8 8 8 10 11 10 10 11 12 11 9 7 4 2 3 3 2 2 3 4 4 3 3 3 4 4 4 5 5 5 6 8 7 6 5 5 5 5 5 5 5 4 5
5 7 9 11 12 15 14 12 11 12 11 9 5 3 4 5 5 4 4 4 5 5 5 4 3 4 5 6 5 5 6 6 6 6 5 6 6 5 5 5 5 5 4 5
7 8 10 11 11 12 13 12 11 10 9 6 4 4 3 3 4 5 4 4 4 4 4 5 6 6 6 7 7 6 6 7 7 6 6 7 6 5 5 5 4 4 3 3
7 8 9 9 9 9 11 10 9 8 7 4 2 3 3 4 5 6 6 6 4 2 2 3 5 6 7 7 8 6 7 7 7 6 5 5 5 5 4 4 4 3 3 2
8 8 9 9 8 8 8 9 8 6 4 1 2 4 5 5 5 5 6 5 3 3 4 6 6 5 6 6 8 6 7 6 6 5 5 5 4 4 4 3 3 2 2 1
7 7 8 7 7 7 6 6 5 4 2 2 3 5 6 6 6 6 6 4 3 5 5 5 5 7 8 8 6 6 6 6 5 4 4 4 3 3 2 2 2 1 1 1
7 6 6 6 5 5 5 5 5 4 4 4 4 4 5 5 4 5 5 3 3 7 6 5 7 9 9 6 5 6 6 5 4 4 3 3 2 1 1 1 1 1 1 2
5 5 5 4 3 3 4 4 4 4 5 6 6 6 5 5 6 6 5 5 7 7 6 7 9 9 8 5 4 4 4 4 3 2 2 1 0 0 1 1 2 2 3 3
4 4 4 4 3 2 2 3 4 5 6 6 8 9 7 5 5 5 5 6 7 7 5 7 9 8 5 4 3 3 2 2 1 1 1 1 2 2 2 3 3 3 4 4
3 3 3 4 4 3 3 3 4 4 4 5 6 6 6 6 6 5 5 6 6 6 4 4 4 4 3 3 2 2 2 1 2 2 2 2 3 3 4 4 5 4 5 5
3 3 3 3 5 5 5 5 5 5 5 5 5 5 6 5 5 5 5 4 4 4 3 3 3 3 2 2 2 2 2 2 3 3 3 3 4 4 4 6 5 5 5 6
Wind_Direction
266 288 305 269 260 243 232 234 237 248 257 265 267 286 289 293 290 286 281 271 265 264 264 263 255 243 229 225 216 205 205 216 228 231 226 222 218 214 208 204 201 190 189 197
252 255 260 260 250 248 249 248 253 265 265 270 292 293 293 296 299 296 291 286 281 277 275 272 269 261 246 238 226 207 212 223 231 230 224 222 218 209 205 203 195 185 189 192
238 214 230 243 230 229 234 235 238 250 261 281 287 286 287 293 296 290 287 285 284 282 277 273 270 267 262 255 237 215 225 231 232 230 229 224 214 206 205 200 190 190 191 191
221 168 225 237 212 213 228 238 238 247 261 270 275 282 280 278 282 284 288 289 288 289 288 288 295 306 311 318 287 246 244 246 243 235 235 226 212 210 205 191 188 189 190 192
214 230 257 267 241 219 227 245 239 247 266 282 292 293 287 323 329 313 311 312 315 320 318 321 333 349 348 324 301 270 259 254 243 229 227 219 215 210 196 185 183 183 180 187
217 226 231 238 225 226 228 252 319 323 322 327 335 306 300 343 333 326 327 328 329 330 328 330 349 3 345 315 305 285 277 265 246 216 208 209 206 194 176 169 171 162 168 181
224 233 249 256 258 185 215 231 352 7 350 339 318 288 300 311 312 314 313 316 323 324 321 336 356 352 322 313 304 304 308 328 13 153 173 173 155 140 134 129 129 134 145 162
213 226 241 266 49 173 177 351 329 340 335 317 300 297 302 305 304 306 306 311 321 316 313 340 352 337 309 314 333 1 49 65 63 68 80 98 108 105 110 117 118 118 118 113
201 216 203 113 132 121 109 342 324 319 313 306 300 299 302 302 303 302 298 300 312 306 305 329 345 338 307 331 358 66 81 81 77 75 73 85 101 105 102 106 114 120 127 133
261 263 295 331 331 354 65 293 295 294 293 293 290 294 298 298 297 297 297 297 298 292 289 309 349 351 336 330 27 102 102 98 93 91 84 77 80 89 98 103 112 120 124 125
252 282 323 304 284 290 300 291 285 285 282 278 280 283 286 289 288 288 290 292 282 266 269 295 356 355 341 330 53 112 109 106 101 97 99 89 79 77 86 75 95 111 112 118
239 243 257 270 268 279 287 284 282 284 285 280 268 270 277 278 279 279 280 285 275 260 257 317 5 357 340 330 340 125 115 107 103 102 97 96 95 82 74 79 77 76 79 85
257 264 260 268 271 272 272 275 276 272 272 279 279 269 270 274 278 276 275 279 274 271 293 1 17 4 341 332 354 102 111 106 104 105 106 105 103 102 96 75 69 63 60 61
266 277 272 269 274 281 277 279 283 279 276 274 278 275 263 264 267 260 262 285 358 37 32 36 44 5 337 337 30 85 95 91 95 94 93 91 91 91 95 98 85 55 43 47
286 286 272 284 288 292 300 302 295 287 289 287 281 275 261 249 245 234 70 69 95 75 34 28 42 1 338 354 61 77 82 85 84 83 78 78 77 77 77 79 80 70 45 29
317 307 306 302 304 315 321 313 298 292 295 292 286 278 267 227 155 111 72 90 129 103 41 26 22 348 340 12 73 79 74 76 81 84 81 76 73 76 77 78 76 69 52 24
339 328 337 324 316 313 308 304 299 297 295 288 280 273 214 159 147 141 104 80 89 81 56 40 19 357 8 35 70 84 83 76 75 79 77 76 76 75 76 77 76 71 49 35
326 302 299 295 299 303 303 302 298 296 293 289 279 244 213 198 189 162 142 130 114 83 46 24 39 38 40 46 63 76 82 80 75 78 78 76 75 73 75 77 76 72 51 34
313 303 302 300 300 298 296 297 297 294 293 281 249 232 211 170 139 133 130 124 115 90 31 13 54 56 51 54 69 71 81 84 82 77 77 79 75 69 71 72 71 65 57 48
308 304 301 299 297 295 296 298 298 294 288 266 224 165 136 122 123 122 111 89 59 58 43 45 57 57 52 53 63 69 75 80 82 78 75 74 76 73 69 70 69 66 57 51
307 305 304 302 301 299 298 300 301 300 306 283 166 145 128 117 118 124 119 99 57 55 69 65 60 57 56 60 63 68 72 75 76 75 74 75 75 74 70 67 64 60 51 39
303 303 303 303 305 307 311 314 317 325 357 59 95 113 116 111 102 89 77 87 93 81 77 68 64 65 67 67 68 70 71 73 73 71 70 68 71 71 65 56 49 32 4 323
300 300 304 307 308 312 327 342 355 13 38 59 76 94 100 97 95 103 94 68 76 83 77 71 75 74 71 67 69 72 73 73 72 70 69 67 67 65 51 5 315 296 287 280
309 312 315 315 321 344 2 11 23 37 49 53 51 56 73 84 68 56 71 74 71 74 71 71 70 69 66 63 64 66 67 67 64 60 55 49 31 306 276 273 274 274 273 274
321 331 346 353 359 6 16 36 51 54 57 56 51 46 45 52 71 69 61 58 62 63 57 52 56 57 56 56 55 54 51 50 40 7 321 294 280 274 270 268 264 265 265 263
352 2 8 12 7 3 16 38 50 48 55 61 51 41 43 47 55 56 55 53 51 52 48 38 33 36 38 37 31 18 359 336 317 290 273 272 271 270 268 267 268 264 262 261
20 19 19 24 21 23 33 43 48 45 41 51 54 38 36 38 39 38 37 35 31 30 26 18 12 10 6 358 340 322 306 293 282 275 271 267 266 265 266 266 264 263 263 263